Flag for India Weather past 2 weeks in Kãnpur, Uttar Pradesh, India

Now
86 °F

Partly sunny.


Feels Like: 105 °F
Forecast: 82 / 97 °F
Wind: 2 mph from North

Location: Lucknow / Amausi

Current Time: Jul 30, 2014 at 8:19:18 AM

Latest Report: Jul 30, 2014 at 7:30 AM


Visibility: 2 mi

Pressure: 29.56 "Hg

Humidity: 89%

Dew point: 82 °F

Location of KãnpurLocation

Historic Weather in Kãnpur — Graph

°F

Kãnpur temperature yesterday

Maximum temperature yesterday: 91 °F (at 1:00 PM)
Minimum temperature yesterday: 79 °F (at 3:00 AM)
Average temperature yesterday: 87 °F

Past Weeks' High & Low Weather Summary

 TemperatureHumidityPressure
High102 °F (Jul 21, 12:30 PM)100% (Jul 18, 5:00 AM)29.68 "Hg (Jul 18, 5:00 AM)
Low77 °F (Jul 18, 11:30 AM)51% (Jul 27, 9:00 AM)29.36 "Hg (Jul 15, 4:30 PM)
Average86 °F83%29.49 "Hg
* Reported Jul 15 7:00 AM — Jul 30 7:00 AM, Kãnpur, Weather by CustomWeather, © 2014

Note: Actual official high and low records may vary slightly from our data, if they occured in-between our weather recording intervals... More about our weather records

Advertising

Kãnpur weather history for previous 24 hours

 ConditionsComfort  
Time TempWeatherWind HumidityBarometerVisibility
7:00 AM
Jul 30
84 °FBroken clouds.2 mph89%29.56 "Hg2 mi
6:30 AM84 °FBroken clouds.2 mph89%29.53 "Hg2 mi
6:00 AM82 °FPartly sunny.2 mph89%29.53 "Hg2 mi
5:30 AM82 °FPassing clouds.2 mph89%29.53 "Hg2 mi
5:00 AM82 °FPassing clouds.2 mph94%29.53 "Hg2 mi
4:00 AM84 °FPartly cloudy.3 mph89%29.50 "Hg2 mi
3:00 AM84 °FPartly cloudy.3 mph89%29.50 "Hg2 mi
2:00 AM84 °FPartly cloudy.3 mph89%29.50 "Hg2 mi
1:00 AM84 °FPartly cloudy.No wind89%29.53 "Hg2 mi
12:00 AM86 °FPartly cloudy.5 mph84%29.53 "Hg2 mi
11:00 PM
Jul 29
86 °FPartly cloudy.3 mph84%29.56 "Hg2 mi
10:00 PM86 °FPartly cloudy.No wind84%29.56 "Hg2 mi
9:00 PM86 °FPartly cloudy.2 mph79%29.53 "Hg2 mi
8:30 PM86 °FPartly cloudy.2 mph79%29.53 "Hg2 mi
8:00 PM91 °FPartly cloudy.2 mph71%29.53 "Hg2 mi
7:00 PM91 °FBroken clouds.2 mph71%29.50 "Hg3 mi
6:30 PM91 °FBroken clouds.5 mph71%29.50 "Hg3 mi
6:00 PM91 °FBroken clouds.5 mph71%29.47 "Hg3 mi
5:30 PM91 °FBroken clouds.No wind71%29.47 "Hg3 mi
5:00 PM91 °FBroken clouds.2 mph71%29.47 "Hg3 mi
4:30 PM91 °FBroken clouds.2 mph71%29.47 "Hg3 mi
4:00 PM91 °FBroken clouds.3 mph71%29.47 "Hg3 mi
3:30 PM91 °FBroken clouds.5 mph71%29.47 "Hg3 mi
3:00 PM91 °FBroken clouds.6 mph71%29.50 "Hg3 mi
2:30 PM91 °FBroken clouds.6 mph71%29.50 "Hg3 mi
2:00 PM91 °FBroken clouds.5 mph71%29.53 "Hg3 mi
1:30 PM91 °FBroken clouds.7 mph71%29.53 "Hg3 mi
1:00 PM91 °FBroken clouds.7 mph71%29.53 "Hg3 mi
12:30 PM90 °FBroken clouds.6 mph71%29.56 "Hg3 mi
12:00 PM90 °FBroken clouds.6 mph75%29.56 "Hg3 mi
11:30 AM88 °FBroken clouds.5 mph79%29.59 "Hg3 mi
11:00 AM88 °FScattered clouds.6 mph79%29.59 "Hg3 mi
10:00 AM88 °FBroken clouds.7 mph79%29.56 "Hg3 mi
9:30 AM86 °FBroken clouds.3 mph79%29.56 "Hg3 mi
9:00 AM84 °FBroken clouds.No wind84%29.56 "Hg2 mi
8:30 AM84 °FBroken clouds.No wind84%29.56 "Hg2 mi
8:00 AM82 °FBroken clouds.2 mph89%29.56 "Hg2 mi
Weather by CustomWeather, © 2014

See weather overviewHow to use our weather pages